Flag for Austria Weather past 2 weeks in Linz, Upper Austria, Austria

Now
77 °F

Scattered clouds.


Feels Like: 78 °F
Forecast: 60 / 79 °F
Wind: 3 mph from West

Location: Linz / Hoersching-Flughafen

Current Time: Jul 24, 2014 at 3:44:46 PM

Latest Report: Jul 24, 2014 at 2:50 PM


Visibility: N/A

Pressure: 29.89 "Hg

Humidity: 42%

Dew point: 52 °F

Location of LinzLocation

Historic Weather in Linz — Graph

°F

Linz temperature yesterday

Maximum temperature yesterday: 79 °F (at 2:50 PM)
Minimum temperature yesterday: 57 °F (at 11:20 PM)
Average temperature yesterday: 66 °F

Past Weeks' High & Low Weather Summary

 TemperatureHumidityPressure
High95 °F (Jul 20, 4:50 PM)100% (Jul 14, 4:20 AM)30.18 "Hg (Jul 14, 4:20 AM)
Low52 °F (Jul 10, 1:50 AM)23% (Jul 20, 4:50 PM)29.77 "Hg (Jul 20, 4:20 PM)
Average67 °F74%29.95 "Hg
* Reported Jul 9 2:50 PM — Jul 24 2:20 PM, Linz, Weather by CustomWeather, © 2014

Note: Actual official high and low records may vary slightly from our data, if they occured in-between our weather recording intervals... More about our weather records

Advertising

Linz weather history for previous 24 hours

 ConditionsComfort  
Time TempWeatherWind HumidityBarometerVisibility
2:20 PM
Jul 24
77 °FScattered clouds.6 mph44%29.89 "HgN/A
1:50 PM75 °FScattered clouds.3 mph50%29.89 "HgN/A
1:20 PM73 °FScattered clouds.5 mph50%29.89 "HgN/A
12:50 PM73 °FScattered clouds.5 mph57%29.89 "HgN/A
12:20 PM72 °FPassing clouds.3 mph57%29.89 "HgN/A
11:50 AM72 °FScattered clouds.3 mph61%29.89 "HgN/A
11:20 AM70 °FPassing clouds.5 mph64%29.92 "HgN/A
10:50 AM70 °FPassing clouds.3 mph64%29.92 "HgN/A
10:20 AM68 °FScattered clouds.5 mph73%29.92 "HgN/A
9:50 AM66 °FPassing clouds.3 mph73%29.92 "HgN/A
9:20 AM64 °FPassing clouds.2 mph78%29.92 "HgN/A
8:50 AM63 °FPassing clouds.2 mph83%29.92 "HgN/A
8:20 AM61 °FPassing clouds.1 mph83%29.92 "HgN/A
7:50 AM57 °FSleet. Cloudy.1 mph94%29.95 "Hg4 mi
7:20 AM57 °FSleet. Cloudy.3 mph94%29.95 "Hg3 mi
6:50 AM55 °FCool.2 mph100%29.92 "Hg4 mi
6:20 AM54 °FCool.1 mph100%29.92 "Hg2 mi
5:50 AM54 °FFog.2 mph94%29.92 "Hg0 mi
5:20 AM52 °FSleet. Overcast.3 mph100%29.92 "Hg1 mi
4:50 AM54 °FSleet. Fog.2 mph100%29.92 "Hg4 mi
4:20 AM54 °FClear.1 mph100%29.92 "Hg10 mi
3:50 AM54 °FClear.1 mph100%29.92 "Hg10 mi
3:20 AM54 °FCool.2 mph100%29.92 "HgN/A
2:50 AM54 °FSleet. Fog.1 mph100%29.92 "Hg6 mi
2:20 AM55 °FCool.3 mph94%29.95 "HgN/A
1:50 AM55 °FCool.2 mph100%29.95 "HgN/A
1:20 AM57 °FCool.No wind94%29.95 "HgN/A
12:50 AM57 °FPassing clouds.2 mph94%29.95 "HgN/A
12:20 AM57 °FCool.1 mph100%29.98 "HgN/A
11:50 PM
Jul 23
57 °FCool.1 mph94%29.98 "HgN/A
11:20 PM57 °FPassing clouds.1 mph94%29.98 "HgN/A
10:50 PM59 °FClear.2 mph94%29.98 "Hg10 mi
10:20 PM59 °FPassing clouds.3 mph88%29.98 "HgN/A
9:50 PM59 °FScattered clouds.3 mph94%29.98 "HgN/A
8:50 PM61 °FPartly sunny.2 mph83%29.95 "HgN/A
8:20 PM61 °FPartly sunny.6 mph83%29.98 "HgN/A
7:50 PM63 °FThundershowers. Partly sunny.9 mph83%29.95 "HgN/A
7:20 PM72 °FThunderstorms. Scattered clouds.13 mph65%29.95 "HgN/A
6:50 PM72 °FScattered clouds.8 mph65%29.92 "HgN/A
6:20 PM73 °FPartly sunny.10 mph57%29.92 "HgN/A
5:50 PM75 °FThundershowers. Partly sunny.10 mph54%29.89 "HgN/A
5:20 PM79 °FPartly sunny.12 mph48%29.89 "HgN/A
4:50 PM79 °FScattered clouds.12 mph48%29.92 "HgN/A
4:20 PM79 °FScattered clouds.8 mph51%29.92 "HgN/A
3:50 PM77 °FScattered clouds.8 mph57%29.92 "HgN/A
3:20 PM75 °FPassing clouds.9 mph61%29.92 "HgN/A
Weather by CustomWeather, © 2014

See weather overviewHow to use our weather pages